Weather in Ishkhoy-Yurt

Russia / Chechen Republic     43°12′56″N   46°23′24″E
temp.,
°C
wind,
m/s
gust,
m/s
humid.,
%
clouds,
%
prec.,
mm/h
press.,
hPa
HPBL,
m
6 march, sat
sat600:00+5sse12600 0.0 101923
03:00+4s11520 0.0 101922
06:00+4ssw22410 0.0 102022
09:00+9e22321 0.0 1018143
12:00+15ene33251 0.0 1016470
15:00+17ene44241 0.0 1014543
18:00+11ese33410 0.0 101461
21:00+10ssw224217 0.0 101324
7 march, sun
sun700:00+9wsw344397 0.0 101242
03:00+9w6144293 0.0 1013406
06:00+6nw91278100 0.1 1018943
09:00+1wnw81193100 3.3 1022761
12:00+3wnw8106399 0.8 10221432
15:00+4nw574299 0.9 10221461
18:00+3nnw224188 0.0 1022617
21:00+1e225081 0.0 102366
8 march, mon
mon800:00−1e246020 0.0 102286
03:00−1ese126410 0.0 102227
06:00−1se12660 0.0 102226
09:00+3ene23550 0.0 1021602
12:00+6e345067 0.0 10181134
15:00+6e555183 0.0 10161065
18:00+4e4664100 0.0 1017367
21:00+1sse0294100 0.6 1018160
9 march, tue
tue900:00+1nnw2296100 1.9 1018184
03:000e2396100 3.1 1017213
06:000s128893 0.0 101738
09:00+3ene117391 0.0 1017390
12:00+6e444839 0.0 10161045
15:00+7e444919 0.0 10151074
18:00+4e35646 0.0 1016136
21:00+3s117240 0.0 101829
10 march, wed
wed1000:00+3sw237196 0.0 101837
03:00+3ssw336595 0.0 101939
06:00+1wnw35693 0.0 102092
09:00+1wnw239748 1.6 1021178
12:00+3nw4668100 1.4 10211040
15:00+4nnw3450100 1.6 10211346
18:00+1ne2458100 0.1 1022123
21:000ese3467100 0.1 1023162